Weather in Sergievka

Russia / Samara Oblast     53°56′29″N   51°09′59″E
temp.,
°C
wind,
m/s
gust,
m/s
humid.,
%
clouds,
%
prec.,
mm/h
press.,
hPa
HPBL,
m
3 march, wed
wed301:00−4w349693 0.3 100140
04:00−6w239587 0.4 100240
07:00−7w239756 0.0 100130
10:00−5w369554 0.1 1003260
13:00−4wnw479388 0.0 1003487
16:00−4wnw698994 0.1 1003692
19:00−6w5119496 0.1 1004396
22:00−8wnw5109392 0.2 1006317
4 march, thu
thu401:00−9w4995100 0.1 1006179
04:00−11wsw469799 0.1 100697
07:00−11sw4109667 0.1 1005245
10:00−7sw6129384 0.4 1004468
13:00−3sw81392100 0.2 1002837
16:00−2sw91596100 1.4 10001031
19:000wsw91595100 1.1 999896
22:000wsw81397100 1.9 1000867
5 march, fri
fri501:00−1wsw4898100 1.6 1000441
04:00−1wsw51098100 3.3 1001570
07:00−1sw51098100 1.9 1001535
10:00−1sw5997100 3.6 1000543
13:000ssw410100100 2.0 999563
16:00+1w81498100 3.8 1000786
19:00−6nw5109395 0.1 1004351
22:00−12nw359367 0.1 100989
6 march, sat
sat601:00−15nw229427 0.0 101220
04:00−15nnw119663 0.0 101320
07:00−15nne1194100 0.0 101320
10:00−13nne2390100 0.0 1013167
13:00−10nne3488100 0.0 1012307
16:00−9n248998 0.0 1011341
19:00−15nnw229292 0.0 101120
22:00−17nw119346 0.0 101220
7 march, sun
sun701:00−17wsw129625 0.0 101220
04:00−15wsw229661 0.1 101323
07:00−15wnw229795 0.1 101323
10:00−15w239478 0.1 1015160
13:00−12sw348628 0.0 1015314
16:00−11s589114 0.0 1013380
19:00−13s6138999 0.0 1011376
22:00−12s71492100 0.1 1009521